Tracking 35237 objects as of 5-Sep-2026
HD Live streaming from Space Station
objects crossing your sky now

STARLINK-31471

Track STARLINK-31471 now!
10-day predictions
STARLINK-31471 is classified as:


NORAD ID: 59568
Int'l Code: 2024-076E
Launch date: April 23, 2024
Source: United States (US)
Launch site: AIR FORCE EASTERN TEST RANGE (AFETR)
Your satellite tracking list
Your tracking list is empty




NASA's NSSDC Master Catalog

Two Line Element Set (TLE):
1 59568U 24076E   26247.58271459 -.00000506  00000-0 -88759-5 0  9999
2 59568  43.0031  78.5664 0001201 260.5534  99.5182 15.27570550133773
Source of the keplerian elements: AFSPC